Regional Weather Roundup
Issued by NWS

Home | Current Version | Previous Version | Graphics & Text | Print | Product List | Glossary On
Versions: 1 2 3 4 5 6 7 8 9 10 11 12 13 14 15 16 17 18 19 20 21 22 23 24 25 26 27 28 29 30 31 32 33 34 35 36 37 38 39 40 41 42 43 44 45 46 47 48 49 50
000
ASUS45 KPSR 231910
RWRAZ

ARIZONA REGIONAL HOURLY WEATHER ROUNDUP
NATIONAL WEATHER SERVICE PHOENIX AZ
1200 PM MST WED JUL 23 2014

NOTE: FAIR INDICATES FEW OR NO CLOUDS BELOW 12,000 FEET WITH NO
SIGNIFICANT WEATHER AND/OR OBSTRUCTIONS TO VISIBILITY.

AZZ001>003-036-232000-
NORTHWEST ARIZONA

CITY           SKY/WX    TMP DP  RH WIND       PRES   REMARKS
BULLHEAD CITY  SUNNY    108  32   7 SW8       29.87F HX 100
KINGMAN        SUNNY    100  36  11 SW16G22   30.10F
$$

AZZ004>008-015-016-018-232000-
NORTH CENTRAL ARIZONA

CITY           SKY/WX    TMP DP  RH WIND       PRES   REMARKS
GRAND CANYON   MOSUNNY   87  37  17 MISG      30.38S
WILLIAMS       MOSUNNY   82  39  21 CALM      30.45F
PRESCOTT       MOSUNNY   94  38  14 W8        30.24F
FLAGSTAFF      PTSUNNY   84  41  21 E5        30.42S
PAYSON         SUNNY     91  48  22 VRB5G14   30.28F
PAGE           SUNNY    100  44  14 VRB6      30.17F
$$

AZZ009>014-017-232000-
NORTHEAST ARIZONA

CITY           SKY/WX    TMP DP  RH WIND       PRES   REMARKS
WINSLOW        SUNNY     96  47  18 SE16G22   30.24F
SAINT JOHNS    MOSUNNY   90  47  22 VRB6      30.30F
WINDOW ROCK    SUNNY     88  41  19 VRB3      30.41F
SHOW LOW       LGT RAIN  72  54  53 NE16G22   30.41R
$$

AZZ023-232000-
GREATER PHOENIX AREA

CITY           SKY/WX    TMP DP  RH WIND       PRES   REMARKS
PHOENIX        PTSUNNY  108  56  18 SE5G17    29.90S HX 107
BUCKEYE          N/A    104  54  18 SE9       29.90F HX 102
GLENDALE       MOSUNNY  106  59  21 SE9       29.91F HX 106
LUKE AFB       NOT AVBL
DEER VALLEY    MOSUNNY  106  53  17 S12       29.92F HX 104
SCOTTSDALE     MOSUNNY  105  56  19 VRB5      29.94F HX 104
MESA-FALCON    PTSUNNY  108  57  19 S12       29.91F HX 107
MESA-GATEWAY   PTSUNNY  106  52  16 SE7G18    29.95F HX 103
CHANDLER       PTSUNNY  106  57  20 SE7       29.92F HX 105
$$

AZZ027-028-232000-
SOUTHWEST MARICOPA COUNTY AND PINAL COUNTY

CITY           SKY/WX    TMP DP  RH WIND       PRES   REMARKS
CASA GRANDE    PTSUNNY  102  55  21 CALM      29.95F HX 101
GILA BEND      MOCLDY   111  43  10 VRB3      29.89F HX 106
$$

AZZ503-504-507>509-232000-
SOUTHEAST ARIZONA

CITY           SKY/WX    TMP DP  RH WIND       PRES   REMARKS
TUCSON         SUNNY    102  51  18 SE14      30.05F
DAVIS-MONTHAN  MOSUNNY  101  54  20 SE17G23   30.03F
RYAN FIELD       N/A    102  52  18 E10G20    30.03F HX 100
NOGALES        MOSUNNY   97  54  23 E12       30.15F
SIERRA VISTA   PTSUNNY   90  54  29 SE14      30.24F
DOUGLAS        MOSUNNY   90  56  31 E16       30.21F
SAFFORD        CLOUDY    94  54  25 SE7G22    30.13F
$$

AZZ020-021-025-026-031-232000-
SOUTHWEST ARIZONA

CITY           SKY/WX    TMP DP  RH WIND       PRES   REMARKS
YUMA           MOSUNNY  111  37   8 W6        29.83F HX 104
$$

CAZ031-033-041-043-047-048-061-232000-
SOUTHERN CALIFORNIA

CITY           SKY/WX    TMP DP  RH WIND       PRES   REMARKS
DOWNTOWN L.A.  SUNNY     86  61  42 SW6       29.97F
L.A. AIRPORT   MOSUNNY   78  58  49 W12       30.00S
SAN DIEGO      MOSUNNY   80  58  46 W8        30.00F
BURBANK        SUNNY     89  50  26 SE3       29.99F
ONTARIO        MOSUNNY   90  48  23 S5        29.99F
RIVERSIDE      SUNNY     92  49  22 VRB5      29.98F
PALM SPRINGS   SUNNY    109  15   3 CALM      29.86F HX 100
EL CENTRO NAS  MOSUNNY  111  30   6 N9        29.80F HX 103
IMPERIAL       SUNNY    109  35   8 N7        29.81F HX 102
BLYTHE         SUNNY    108  33   7 S3        29.85F HX 101
NEEDLES        SUNNY    110  29   6 VRB6      29.88F HX 102
$$

NVZ020-UTZ003-232000-
SOUTHERN NEVADA-UTAH

CITY           SKY/WX    TMP DP  RH WIND       PRES   REMARKS
LAS VEGAS      MOSUNNY  105  28   7 S14G23    29.93F
SALT LAKE CITY MOSUNNY   99  32   9 SE22G28   30.08F
$$

NMZ009-TXZ055-232000-
NEW MEXICO-WEST TEXAS

CITY           SKY/WX    TMP DP  RH WIND       PRES   REMARKS
ALBUQUERQUE    PTSUNNY   83  51  33 S12G23    30.36F
EL PASO        MOSUNNY   91  52  26 SE17G23   30.23F
$$


........................KEY........................
SKY/WX - SKY CONDITION/WEATHER
TMP    - TEMPERATURE IN FAHRENHEIT
DP     - DEW POINT IN FAHRENHEIT
RH     - RELATIVE HUMIDITY IN PERCENT
WIND   - DIRECTION AND SPEED IN MILES PER HOUR (MPH)
VRB    - VARIABLE WIND DIRECTION
PRES   - MEAN SEA LEVEL PRESSURE IN INCHES OF MERCURY
         F - FALLING PRESSURE   R - RISING PRESSURE
         S - STEADY PRESSURE
VSB    - VISIBILITY IN MILES
HX     - HEAT INDEX IN FAHRENHEIT
WCI    - WIND CHILL INDEX IN FAHRENHEIT
TC     - TEMPERATURE IN CELSIUS WHICH IS ALSO KNOWN AS
         TEMPERATURE IN CENTIGRADE
AFB    - AIR FORCE BASE
         LUKE AFB IS LUKE AIR FORCE BASE
         DAVIS-MONTHAN IS DAVIS-MONTHAN AIR FORCE BASE
NAS    - NAVAL AIR STATION
         EL CENTRO NAS IS EL CENTRO NAVAL AIR STATION
N/A    - NOT AVAILABLE



USA.gov is the U.S. government's official web portal to all federal, state and local government web resources and services.